{"data":{"norad_id":49075,"epoch":"2026-09-20T03:04:20.318016Z","epoch_age_seconds":54021,"freshness":"FRESH","line1":"1 49075U 21075A   26263.12801294  .00000075  00000+0  17441-3 0  9997","line2":"2 49075  87.8984 331.8159 0001920  98.2624 261.8723 13.12440560247664","mean_motion":13.1244056,"eccentricity":0.000192,"inclination_deg":87.8984,"raan_deg":331.8159,"arg_perigee_deg":98.2624,"mean_anomaly_deg":261.8723,"bstar":0.00017441,"rev_number":24766,"period_min":109.71925463809,"perigee_km":1212.275061575,"apogee_km":1215.19033954,"semimajor_km":7591.8697005575,"source":"CELESTRAK","updated_at":"2026-09-20T09:00:44.630666Z"}}